STARLINK-11156, 61056

Orbit data source: Space-Track

STARLINK-11156, 61056 is a payload satellite owned by SpaceX/Seattle (US) in LEO that was launched on Fri, 13 Sep 2024 UTC via an FALCON 9 launch vehicle from the Air Force Western Test Range (AFWTR). Payload-class satellites include a variety of spacecraft equipped with specific instruments for various scientific and technological missions. These include communications satellites like Starlink; space stations such as the ISS; scientific satellites like the Hubble; Earth observation satellites from companies like Planet Labs, Umbra, and HawkEye 360; GPS; miniature CubeSats for education and research; and military/defense satellites.

Loading next visibility...
Identifier
61056, 2024-164G
Orbit
LEO
Country
Flag of USUS
Related business
Manufacturer
SpaceX/Seattle
Mission
Partially operational Commercial Communications
Bus & Motor
STARLINK V2MD, Unknown motor
Mass
960 kg wet, ~910 kg dry
Launch date (UTC)
2024-09-13 (2 years ago)
Launch vehicle
FALCON 9
Launch site
Air Force Western Test Range (AFWTR)
Object type
Payload
Rocket body
Debris
Shape & HBR
Box + 2 Pan, 18.1 m
Radar Cross Section
36.964 m², Large (>1 m²)

Expand to show TLE details & history
Last TLE update: 11 hours ago

TLE from 11 hours ago
0 STARLINK-11156
1 61056U 24164G   26171.37682441 -.00001758  00000-0 -10083-4 0  9996
2 61056  53.1596 164.5713 0001422 112.1106 248.0062 15.68815936101553
Epoch: 2026-06-20T09:02Z
TLE epoch observation values (Epoch: 2026-06-20T09:02:37.629Z)
Latitude
-0.00005°
Longitude
120.32215°
Altitude
363.56 km
Speed
7.692 km/s
True Right ascension
10h 58m 17s
True Declination
0° 00' 00"
Sunlit
Object was in daylight at epoch
Visualization orbit readout
Latitude
Unknown
Longitude
Unknown
Altitude
Unknown
Speed
Unknown
Apparent Right ascension
Unknown
Apparent Declination
Unknown
Sunlit
N/A
Visualization observer readout
Local Sidereal Time
07:18:08
Azimuth
Unknown
Elevation
Unknown
Doppler factor
Unknown
Orbital elements
Apogee altitude
363.506 km
Perigee altitude
361.589 km
Semi-major axis
6,740.684 km
Eccentricity
0.00014
Inclination
53.1596°
RAAN
164.5713°
Arg. of periapsis
112.1106°
True anomaly
247.99109°
Mean anomaly
248.0062°
Eccentric anomaly
247.99865°
Mean motion
3.92182 °/min
Orbital period
91.79 mins
BSTAR
-0.000010083
Loading maneuver chart data...
Computing Atmospheric mass density...
Loading historical data...
Loading historical data...
Loading historical data...
Loading historical data...
Loading historical data...
Loading historical data...
Loading historical data...

Documentation

Showing up to 5 results
|